Location: Bakov nad Jizerou
(50.4784°N, 14.9394°E)
Time: 19:32:51
(UTC+00:00)

Cosmos 1703 - Pass Details

Date: 01 November 2021
Orbit: 521 x 539 km, 82.5° (Epoch: 01 December)

Event Time Altitude Azimuth Distance (km) Brightness Sun altitude
Rises 16:50:11 0° 331° (NNW) 2,678 7.1 -12.3°
Reaches altitude 10° 16:53:27 10° 302° (WNW) 1,777 6.7 -12.8°
Maximum altitude 16:55:05 12° 277° (W) 1,626 7.0 -13.0°
Drops below altitude 10° 16:56:42 10° 252° (WSW) 1,767 7.3 -13.3°
Sets 16:59:56 0° 222° (SW) 2,645 7.6 -13.8°
